Other Public Products
Issued by NWS Grand Forks, ND

Home | Current Version | Previous Version | Text Only | Print | Product List | Glossary Off
Versions: 1 2 3 4 5 6 7 8 9 10 11 12 13 14 15 16 17 18 19 20 21 22 23 24 25 26 27 28 29 30 31 32 33 34 35 36 37 38 39 40 41 42 43 44 45 46 47 48 49 50

000
FPUS83 KFGF 261131
OPUFGF
PRAIRIE TO PINES WEATHER ROUNDUP
NATIONAL WEATHER SERVICE EASTERN NORTH DAKOTA/GRAND FORKS ND
600 AM CDT THU MAR 26 2015

 **SATELLITE DATA USED TO AUGMENT SKY COVER AT AUTOMATED STATIONS**
 *****  WEATHER ACROSS EASTERN NORTH DAKOTA  *****

CITY           SKY/WX    TMP DP  RH WIND       PRES   REMARKS
GRAND FORKS    MOCLDY    21  18  86 NW9       30.23R WCI  11
GRAND FORKS AF MOCLDY    21  16  79 N8        30.22R WCI  12
GRAND CITY NWS NOT AVBL
BUXTON           N/A     22  21  94 N6          N/A  WCI  15
DEVILS LAKE    CLOUDY    25  19  80 NE7       30.19R WCI  17
FARGO          CLOUDY    24  18  77 N9        30.19R WCI  14
WAHPETON ARPT  PTSUNNY   23  19  86 N5        30.19R WCI  17
$$

 *****  WEATHER ACROSS CENTRAL AND WESTERN NORTH DAKOTA  *****

CITY           SKY/WX    TMP DP  RH WIND       PRES   REMARKS
JAMESTOWN      CLOUDY    21  19  92 N3        30.18R
BISMARCK       CLOUDY    25  23  92 E3        30.19R
MINOT          CLOUDY    26  22  84 CALM      30.18R
MINOT AFB      CLOUDY    26  26  99 CALM      30.17S
GARRISON         N/A     28  25  88 NE3       30.16S
WILLISTON      CLOUDY    30  28  92 E3        30.13S
DICKINSON      LGT SNOW  28  25  88 SE8       30.07F VSB 1   WCI  20
HETTINGER      LGT SNOW  28  25  88 E6        30.09F VSB 3/4 WCI  22
$$

 *****  OTHER OBSERVATIONS NORTHEAST NORTH DAKOTA  *****

CITY           SKY/WX    TMP DP  RH WIND       PRES   REMARKS
WALHALLA         N/A     19  19 100 NW7       30.25S WCI  10
LANGDON        NOT AVBL
CAVALIER         N/A     21  18  86 N8        30.25R WCI  12
GRAFTON        NOT AVBL
CANDO          CLOUDY    25  19  80 NE7       30.21R WCI  17
FORT TOTTEN      N/A     25  20  80 NE2       29.95S
ROLLA          CLOUDY    23  23 100 E8        30.20S WCI  14
RUGBY          FAIR      23  23 100 E6        30.19S WCI  16
 ***** THE ABOVE OBSERVATIONS ARE NON NWS ARE NOT QUALITY
        CONTROLLED AND MAY MIS-REPORT RAIN FOR SNOW...
$$

 *****  OTHER OBSERVATIONS SOUTHEAST NORTH DAKOTA *****

CITY           SKY/WX    TMP DP  RH WIND       PRES   REMARKS
COOPERSTOWN    NOT AVBL
VALLEY CITY    CLOUDY    27  27 100 N9        30.18R WCI  17
OAKES            N/A     23  23 100 CALM      30.19R
GWINNER          N/A     25  25 100 N6          N/A  WCI  18
BUFFALO        NOT AVBL
WYNDMERE       NOT AVBL
 ***** THE ABOVE OBSERVATIONS ARE NON NWS ARE NOT QUALITY
       CONTROLLED AND MAY MIS-REPORT RAIN FOR SNOW...
$$

  *****  WEATHER ACROSS NORTHERN MINNESOTA  *****

CITY           SKY/WX    TMP DP  RH WIND       PRES   REMARKS
FLAG ISLAND    CLEAR     16  10  79 N12       30.17R WCI   3
WARROAD        CLEAR     18  12  79 N9        30.19R WCI   6
ROSEAU         CLEAR     19  14  79 N10       30.19R WCI   8
HALLOCK        CLOUDY    23  18  80 N10       30.23R WCI  12
THF RVR FALLS  CLOUDY    23  16  74 N13       30.18R WCI  11
HALSTAD          N/A     20  16  85 N9          N/A  WCI   9
FOSSTON        CLOUDY    21  18  86 NW12      30.15R WCI   9
BAUDETTE       CLOUDY    20  12  71 N9        30.14R WCI   9
WASKISH        CLOUDY    19  14  79 N8        30.14R WCI   9
CROOKSTON      CLOUDY    25  19  80 N10       30.21R WCI  15
$$
  *****  WEATHER ACROSS CENTRAL AND WEST MINNESOTA  *****

CITY           SKY/WX    TMP DP  RH WIND       PRES   REMARKS
BEMIDJI        CLOUDY    23  17  77 N7        30.11R WCI  15
PARK RAPIDS    CLOUDY    24  18  77 NW9       30.09S WCI  14
WADENA         CLEAR     18  16  93 NW7       30.11R WCI   8
DETROIT LAKES  CLEAR     19  18  93 N7        30.15R WCI  10
MOORHEAD       MOCLDY    23  21  93 N9        30.20R WCI  13
FERGUS FALLS   CLEAR     21  16  79 N8        30.19R WCI  12
ELBOW LAKE     FAIR      23  18  82 N10       30.15R WCI  12
MORRIS MN      CLEAR     25  21  86 N10       30.14R WCI  15
STAPLES        CLOUDY    21  18  86 NW10      30.10R WCI  10
WHEATON        CLEAR     21  19  93 NW8       30.20R WCI  12
$$
  *****  WEATHER ELSEWHERE ACROSS MINNESOTA  *****

CITY           SKY/WX    TMP DP  RH WIND       PRES   REMARKS
DULUTH         FLURRIES  23  14  68 N17G23    30.00R WCI   9
INTRNTL FALLS  CLEAR     15   6  67 N14G21    30.13R WCI   0
ELY            FLURRIES  16  10  79 N12G21    30.03S WCI   3
CLOQUET        CLOUDY    25  12  58 NW21G31   30.03R WCI  10
BRAINERD       CLOUDY    27  17  66 NW12      30.07S WCI  17
HIBBING        FLURRIES  21  14  74 N13       30.05R WCI   9
ALEXANDRIA     FAIR      23  16  74 NW10      30.12S WCI  12
SAINT CLOUD    CLOUDY    25  19  78 NW9       30.09R WCI  15
MINNEAPOLIS    PTCLDY    28  20  71 NW15      30.07R WCI  16
$$

  *****  WEATHER ACROSS SOUTH DAKOTA  *****

CITY           SKY/WX    TMP DP  RH WIND       PRES   REMARKS
SIOUX FALLS    PTCLDY    25  19  78 W8        30.16F WCI  16
BROOKINGS      NOT AVBL
WATERTOWN      CLEAR     27  23  85 NW9       30.13S WCI  18
HURON          CLEAR     16  13  88 W7        30.19R WCI   6
SISSETON         N/A     24  23  96 N8        30.16R WCI  15
ABERDEEN       PTCLDY    25  19  78 NW7       30.19R WCI  17
MITCHELL       CLEAR     22  16  78 W9        30.21S WCI  12
PIERRE         PTCLDY    19  14  81 CALM      30.18R
MOBRIDGE       CLOUDY    22  17  81 N3        30.16R
RAPID CITY     CLOUDY    32  26  78 CALM      30.09F
$$

  *****  SOME WEATHER IN NEARBY STATES *****

CITY           SKY/WX    TMP DP  RH WIND       PRES   REMARKS
GLASGOW MT     PTCLDY    29  24  82 E8        30.08R WCI  21
GREAT FALLS MT CLOUDY    44  32  62 SW17      30.13F
CHEYENNE WY    CLEAR     31  17  56 W13       30.16R WCI  21
SCOTTSBLUFF NE CLOUDY    25  22  88 W5        30.16S WCI  19
OMAHA NE       CLEAR     26  24  92 CALM      30.21R
DES MOINES IA  CLEAR     31  23  72 NW9       30.13R WCI  23
DAVENPORT IA   CLEAR     29  24  82 NW9       30.03R WCI  20
CHICAGO IL     CLOUDY    33  26  75 NW7       29.95R
EAU CLAIRE WI  CLOUDY    32  20  61 NW13      29.98R WCI  22
LA CROSSE WI   CLOUDY    34  22  61 NW14      30.01R WCI  25
$$

  *****  SOME NATIONAL WEATHER *****

CITY           SKY/WX    TMP DP  RH WIND       PRES   REMARKS
LA GUARDIA NY  FOG       43  41  93 S7        30.00S VSB 1
RALEIGH NC     CLOUDY    63  61  93 S10       29.98F
ATLANTA GA     CLOUDY    63  59  88 S6        29.99S
NEW ORLEANS LA CLOUDY    68  63  84 CALM      29.91R
OKLAHOMA CITY  PTCLDY    42  36  79 N20G29    30.13S
ALBUQUERQUE NM CLEAR     41  25  53 N7        30.26S
SALT LAKE CITY CLEAR     36  22  56 S5        30.39S
LOS ANGELES CA CLEAR     60  49  66 E3        30.05R
BOISE ID       PTCLDY    39  33  79 S5        30.40F
SEATTLE WA     MOCLDY    52  50  93 S7        30.31F
$$

*** WEATHER ACROSS MANITOBA...SASKATCHEWAN AND ONTARIO ***
                ***ONTARIO***

CITY           SKY/WX    TMP DP  RH WIND       PRES   REMARKS
GERALDTON      LGT SNOW   7   3  85 N9G18     29.96R DRFTSNOWWCI  -7
THUNDER BAY    FLURRIES  18  10  73 NW14      29.99R WCI   4
SIOUX LOOKOUT  CLEAR      5   1  85 N6        30.12R WCI  -6
TORONTO        CLOUDY    37  30  75 W3        29.86F
BIG TROUT LK   FLURRIES  -8 -11  84 NW8       30.13R WCI -23
PICKLE LAKE    PTCLDY    -2  -8  78 N6        30.09  WCI -14
DRYDEN         CLEAR      7   5  92 N6        30.12R WCI  -3
KENORA         PTCLDY    12   9  85 N7        30.15R WCI   2
$$
                *** MANITOBA***

CITY           SKY/WX    TMP DP  RH WIND       PRES   REMARKS
BRANDON        FLURRIES  21  19  93 E5        30.23S WCI  15
DAUPHIN        FOG       16  16 100 CALM      30.25S VSB 1/8
ISLAND LAKE    CLEAR     -8 -13  77 W6        30.28R WCI -21
PILOT MOUND      N/A     16  14  93 N2          N/A
THE PAS        CLEAR      0  -4  85 N2        30.31R
THOMPSON       CLEAR    -13 -18  77 NW2       30.34S
WINNIPEG       CLEAR     18  14  86 N7        30.26R WCI   8
LYNN LAKE      CLEAR    -20 -27  69 CALM      30.32R
CHURCHILL      CRYSTALS  -4  -9  77 NW12      30.31R WCI -22
GILLAM         CLEAR     -8 -15  71 NW8       30.29R WCI -23
$$
                ***SASKATCHEWAN***

CITY           SKY/WX    TMP DP  RH WIND       PRES   REMARKS
ESTEVAN        CLOUDY    27  23  86 E9        30.15F WCI  17
KINDERSLEY     PTCLDY    28  23  80 SE3       30.06F
LLOYDMINSTER   FOG       14  12  92 E5        30.06R VSB 1/8 WCI   6
PRINCE ALBERT  CLOUDY    23  19  86 E6        30.20  WCI  16
REGINA         PTCLDY    25  21  86 E13       30.15R WCI  13
YORKTON        PTCLDY     9   7  92 CALM      30.21R FOG


USA.gov is the U.S. government's official web portal to all federal, state and local government web resources and services.